User: anonymous   Login
Location: Roanoke
(37.2710°N, 79.9420°W)
Time: 12:36:28
(UTC-04:00)
Language:

Cosmos 1441 Rocket - Orbit

View from above orbital plane
View from above orbital plane
View from above satellite
View from above satellite

Ground track
Ground track

The orbit data is extracted from the following two-line orbital elements,

1 13819U 83010B   18113.58387264 +.00000541 +00000-0 +27010-4 0  9995
2 13819 081.1155 157.2591 0032934 025.3949 334.8888 15.15276371920436
Epoch (UTC): 23 April 2018 14:00:46
Eccentricity: 0.0032934
inclination: 81.1155°
perigee height: 497 km
apogee height: 543 km
right ascension of ascending node: 157.2591°
argument of perigee: 25.3949°
revolutions per day: 15.15276371
mean anomaly at epoch: 334.8888°
orbit number at epoch: 92043

The dashed part of the orbit path shows where the satellite is in the earth's shadow,  

DLR